| Date | Time | Temp. (oF) | Dew Point (oF) | Rel. Hum. (%) | Press. (in.) | Wind Dir. | Wind Speed (mph) | Hourly Rainfall (in.) |
|
|---|---|---|---|---|---|---|---|---|---|
| 1 | 01/03 | 00:00 | 31 | 31 | 100 | 30.09 | ENE | 5 | 0.00 |
| 2 | 01/02 | 23:00 | 31 | 31 | 100 | 30.10 | ESE | 8 | 0.01 |
| 3 | 01/02 | 22:00 | 32 | 32 | 100 | 30.10 | ENE | 6 | 0.02 |
| 4 | 01/02 | 21:00 | 33 | 32 | 100 | 30.10 | SSE | 6 | 0.00 |
| 5 | 01/02 | 20:00 | 33 | 32 | 100 | 30.10 | ENE | 4 | 0.00 |
| 6 | 01/02 | 19:00 | 34 | 33 | 100 | 30.08 | ENE | 11 | 0.00 |
| 7 | 01/02 | 18:00 | 35 | 35 | 100 | 30.07 | ESE | 4 | 0.00 |
| 8 | 01/02 | 17:00 | 36 | 36 | 100 | 30.07 | E | 2 | 0.00 |
| 9 | 01/02 | 16:00 | 36 | 36 | 100 | 30.04 | ENE | 3 | 0.00 |
| 10 | 01/02 | 15:00 | 37 | 36 | 97 | 30.03 | E | 4 | 0.00 |
| 11 | 01/02 | 14:00 | 37 | 34 | 92 | 30.02 | NE | 1 | 0.00 |
| 12 | 01/02 | 13:00 | 37 | 34 | 91 | 30.00 | NE | 5 | 0.00 |
| 13 | 01/02 | 12:00 | 37 | 34 | 91 | 30.00 | N | 4 | 0.00 |
| 14 | 01/02 | 11:00 | 36 | 34 | 94 | 30.01 | NNW | 4 | 0.00 |
| 15 | 01/02 | 10:00 | 35 | 34 | 98 | 30.03 | NNW | 4 | 0.00 |
| 16 | 01/02 | 09:00 | 34 | 33 | 100 | 30.00 | WNW | 4 | 0.00 |
| 17 | 01/02 | 08:00 | 34 | 33 | 100 | 29.96 | NW | 5 | 0.00 |
| 18 | 01/02 | 07:00 | 35 | 35 | 100 | 29.94 | WNW | 3 | 0.00 |
| 19 | 01/02 | 06:00 | 35 | 35 | 100 | 29.89 | SW | 4 | 0.00 |
| 20 | 01/02 | 05:00 | 35 | 35 | 100 | 29.85 | WNW | 4 | 0.00 |
| 21 | 01/02 | 04:00 | 35 | 35 | 100 | 29.78 | NNE | 7 | 0.00 |
| 22 | 01/02 | 03:00 | 35 | 35 | 100 | 29.81 | NW | 6 | 0.00 |
| 23 | 01/02 | 02:00 | 36 | 36 | 100 | 29.79 | NW | 5 | 0.00 |
| 24 | 01/02 | 01:00 | 36 | 36 | 100 | 29.76 | NW | 4 | 0.02 |